Wetterdaten: Woche 16.03.15 - 22.03.15 (KW12)
Datum Zeit Temp. A. Feuchte A. Luftdruck Regen Wind Richtung Sonnenschein ET UV Solar Taupunkt Windchill Windben Empfang
16.03.2015 00:00 3,7 C 61 % 1024,4 hPa 0,0 l/m 3,8 km/h (1 Bft) O-NO 0,00 h 0,000 mm 0,0 UV-I 0 W/m -3,2 C 3,3 C 5,9 km/h (2 Bft) 0,00 %
16.03.2015 01:00 3,0 C 63 % 1024,4 hPa 0,0 l/m 3,4 km/h (1 Bft) O-SO 0,00 h 0,000 mm 0,0 UV-I 0 W/m -3,5 C 2,1 C 5,9 km/h (2 Bft) 0,00 %
16.03.2015 02:00 2,7 C 63 % 1024,0 hPa 0,0 l/m 2,8 km/h (1 Bft) O-SO 0,00 h 0,000 mm 0,0 UV-I 0 W/m -3,6 C 2,5 C 5,0 km/h (1 Bft) 0,00 %
16.03.2015 03:00 2,6 C 62 % 1024,0 hPa 0,0 l/m 3,3 km/h (1 Bft) O 0,00 h 0,000 mm 0,0 UV-I 0 W/m -3,9 C 2,6 C 6,9 km/h (2 Bft) 0,00 %
16.03.2015 04:00 2,9 C 62 % 1024,1 hPa 0,0 l/m 3,3 km/h (1 Bft) O 0,00 h 0,000 mm 0,0 UV-I 0 W/m -3,6 C 2,9 C 5,9 km/h (2 Bft) 0,00 %
16.03.2015 05:00 3,1 C 62 % 1024,3 hPa 0,0 l/m 2,9 km/h (1 Bft) O-SO 0,00 h 0,000 mm 0,0 UV-I 0 W/m -3,5 C 3,1 C 4,9 km/h (1 Bft) 0,00 %
16.03.2015 06:00 3,3 C 62 % 1024,5 hPa 0,0 l/m 2,4 km/h (1 Bft) O-NO 0,00 h 0,000 mm 0,0 UV-I 7 W/m -3,2 C 3,3 C 5,9 km/h (2 Bft) 0,00 %
16.03.2015 07:00 4,1 C 60 % 1024,8 hPa 0,0 l/m 3,8 km/h (1 Bft) O-SO 0,00 h 0,000 mm 1,0 UV-I 55 W/m -2,9 C 3,6 C 6,9 km/h (2 Bft) 0,00 %
16.03.2015 08:00 5,6 C 58 % 1024,5 hPa 0,0 l/m 12,5 km/h (3 Bft) O-SO 0,00 h 0,000 mm 1,7 UV-I 143 W/m -2,1 C 0,7 C 15,8 km/h (3 Bft) 0,00 %
16.03.2015 09:00 7,1 C 55 % 1024,3 hPa 0,0 l/m 11,8 km/h (2 Bft) O-SO 0,00 h 0,000 mm 2,3 UV-I 201 W/m -1,2 C 3,6 C 15,9 km/h (3 Bft) 0,00 %
16.03.2015 10:00 9,3 C 51 % 1023,8 hPa 0,0 l/m 14,6 km/h (3 Bft) O 0,50 h 0,000 mm 3,3 UV-I 307 W/m -0,3 C 4,8 C 18,9 km/h (3 Bft) 0,00 %
16.03.2015 11:00 11,3 C 46 % 1023,5 hPa 0,0 l/m 14,1 km/h (3 Bft) O 1,00 h 0,000 mm 4,0 UV-I 406 W/m -0,1 C 7,5 C 17,9 km/h (3 Bft) 0,00 %
16.03.2015 12:00 12,5 C 44 % 1023,1 hPa 0,0 l/m 11,9 km/h (2 Bft) O 0,00 h 0,000 mm 3,0 UV-I 227 W/m 0,6 C 9,7 C 15,8 km/h (3 Bft) 0,00 %
16.03.2015 13:00 14,3 C 35 % 1022,7 hPa 0,0 l/m 6,5 km/h (2 Bft) SO 0,00 h 0,000 mm 2,3 UV-I 280 W/m -1,2 C 13,5 C 10,9 km/h (2 Bft) 0,00 %
16.03.2015 14:00 14,3 C 32 % 1022,8 hPa 0,0 l/m 7,0 km/h (2 Bft) O-NO 0,00 h 0,000 mm 2,0 UV-I 196 W/m -2,1 C 13,0 C 11,9 km/h (2 Bft) 0,00 %
16.03.2015 15:00 12,6 C 39 % 1023,0 hPa 0,0 l/m 8,9 km/h (2 Bft) O-SO 0,00 h 0,000 mm 1,0 UV-I 135 W/m -1,0 C 10,7 C 12,9 km/h (3 Bft) 0,00 %
16.03.2015 16:00 11,9 C 41 % 1023,4 hPa 0,0 l/m 8,1 km/h (2 Bft) O-SO 0,00 h 0,000 mm 1,0 UV-I 93 W/m -1,1 C 9,9 C 11,9 km/h (2 Bft) 0,00 %
16.03.2015 17:00 10,9 C 42 % 1023,8 hPa 0,0 l/m 6,6 km/h (2 Bft) O-SO 0,00 h 0,000 mm 0,0 UV-I 18 W/m -1,7 C 10,0 C 9,9 km/h (2 Bft) 0,00 %
16.03.2015 18:00 9,7 C 49 % 1024,4 hPa 0,0 l/m 12,3 km/h (3 Bft) O-NO 0,00 h 0,000 mm 0,0 UV-I 0 W/m -0,6 C 6,1 C 16,9 km/h (3 Bft) 0,00 %
16.03.2015 19:00 8,5 C 52 % 1025,0 hPa 0,0 l/m 10,4 km/h (2 Bft) O-SO 0,00 h 0,000 mm 0,0 UV-I 0 W/m -0,8 C 5,5 C 13,8 km/h (3 Bft) 0,00 %
16.03.2015 20:00 8,1 C 53 % 1025,6 hPa 0,0 l/m 11,0 km/h (2 Bft) O-SO 0,00 h 0,000 mm 0,0 UV-I 0 W/m -1,0 C 4,9 C 15,8 km/h (3 Bft) 0,00 %
16.03.2015 21:00 7,7 C 55 % 1025,6 hPa 0,0 l/m 7,5 km/h (2 Bft) O 0,00 h 0,000 mm 0,0 UV-I 0 W/m -0,8 C 6,4 C 11,9 km/h (2 Bft) 0,00 %
16.03.2015 22:00 7,6 C 55 % 1025,8 hPa 0,0 l/m 7,8 km/h (2 Bft) O 0,00 h 0,000 mm 0,0 UV-I 0 W/m -0,9 C 5,5 C 12,9 km/h (3 Bft) 0,00 %
16.03.2015 23:00 7,4 C 55 % 1025,9 hPa 0,0 l/m 9,0 km/h (2 Bft) O 0,00 h 0,000 mm 0,0 UV-I 0 W/m -1,0 C 5,1 C 12,9 km/h (3 Bft) 0,00 %
17.03.2015 00:00 7,3 C 57 % 1025,9 hPa 0,0 l/m 5,3 km/h (1 Bft) SO 0,00 h 0,000 mm 0,0 UV-I 0 W/m -0,7 C 6,6 C 8,9 km/h (2 Bft) 0,00 %
17.03.2015 01:00 7,4 C 57 % 1025,8 hPa 0,0 l/m 5,7 km/h (1 Bft) S 0,00 h 0,000 mm 0,0 UV-I 0 W/m -0,6 C 6,8 C 9,9 km/h (2 Bft) 0,00 %
17.03.2015 02:00 7,5 C 58 % 1025,3 hPa 0,0 l/m 7,1 km/h (2 Bft) O 0,00 h 0,000 mm 0,0 UV-I 0 W/m -0,3 C 6,5 C 10,9 km/h (2 Bft) 0,00 %
17.03.2015 03:00 7,8 C 57 % 1025,3 hPa 0,0 l/m 12,3 km/h (3 Bft) O-SO 0,00 h 0,000 mm 0,0 UV-I 0 W/m -0,2 C 3,9 C 16,8 km/h (3 Bft) 0,00 %
17.03.2015 04:00 8,0 C 57 % 1025,3 hPa 0,0 l/m 7,6 km/h (2 Bft) O 0,00 h 0,000 mm 0,0 UV-I 0 W/m -0,1 C 6,5 C 11,9 km/h (2 Bft) 0,00 %
17.03.2015 05:00 7,6 C 59 % 1025,7 hPa 0,0 l/m 12,7 km/h (3 Bft) O 0,00 h 0,000 mm 0,0 UV-I 0 W/m 0,0 C 3,8 C 16,9 km/h (3 Bft) 0,00 %
17.03.2015 06:00 7,0 C 60 % 1026,2 hPa 0,0 l/m 10,5 km/h (2 Bft) O-NO 0,00 h 0,000 mm 0,0 UV-I 19 W/m -0,3 C 4,0 C 15,8 km/h (3 Bft) 0,00 %
17.03.2015 07:00 7,5 C 58 % 1026,3 hPa 0,0 l/m 15,3 km/h (3 Bft) O 0,00 h 0,000 mm 1,0 UV-I 87 W/m -0,2 C 2,1 C 19,9 km/h (4 Bft) 0,00 %
17.03.2015 08:00 8,6 C 54 % 1026,3 hPa 0,0 l/m 14,1 km/h (3 Bft) O 0,00 h 0,000 mm 1,7 UV-I 137 W/m -0,2 C 4,0 C 16,8 km/h (3 Bft) 0,00 %
17.03.2015 09:00 9,8 C 51 % 1026,1 hPa 0,0 l/m 17,6 km/h (3 Bft) O 0,00 h 0,000 mm 2,0 UV-I 172 W/m 0,2 C 3,9 C 23,9 km/h (4 Bft) 0,00 %
17.03.2015 10:00 10,5 C 50 % 1026,0 hPa 0,0 l/m 21,9 km/h (4 Bft) O-SO 0,00 h 0,000 mm 3,0 UV-I 301 W/m 0,6 C 3,4 C 28,1 km/h (4 Bft) 0,00 %
17.03.2015 11:00 11,1 C 49 % 1025,7 hPa 0,0 l/m 23,5 km/h (4 Bft) O 0,00 h 0,000 mm 3,0 UV-I 300 W/m 0,8 C 3,8 C 32,1 km/h (5 Bft) 0,00 %
17.03.2015 12:00 12,2 C 48 % 1024,7 hPa 0,0 l/m 18,5 km/h (3 Bft) O 0,25 h 0,000 mm 3,3 UV-I 316 W/m 1,4 C 6,7 C 23,0 km/h (4 Bft) 0,00 %
17.03.2015 13:00 13,5 C 43 % 1023,7 hPa 0,0 l/m 22,1 km/h (4 Bft) O-SO 0,00 h 0,000 mm 2,3 UV-I 230 W/m 1,1 C 7,3 C 30,0 km/h (5 Bft) 0,00 %
17.03.2015 14:00 14,2 C 40 % 1023,1 hPa 0,0 l/m 24,4 km/h (4 Bft) O 0,00 h 0,000 mm 2,0 UV-I 171 W/m 0,7 C 7,8 C 29,1 km/h (5 Bft) 0,00 %
17.03.2015 15:00 14,1 C 38 % 1022,6 hPa 0,0 l/m 19,5 km/h (3 Bft) NO 0,00 h 0,000 mm 1,3 UV-I 137 W/m -0,1 C 8,8 C 27,0 km/h (4 Bft) 0,00 %
17.03.2015 16:00 13,5 C 43 % 1022,4 hPa 0,0 l/m 12,5 km/h (3 Bft) O-SO 1,00 h 0,000 mm 1,0 UV-I 345 W/m 1,0 C 10,5 C 19,8 km/h (3 Bft) 0,00 %
17.03.2015 17:00 12,1 C 46 % 1022,7 hPa 0,0 l/m 12,8 km/h (3 Bft) O 0,50 h 0,000 mm 0,0 UV-I 74 W/m 0,8 C 8,7 C 17,9 km/h (3 Bft) 0,00 %
17.03.2015 18:00 10,5 C 49 % 1023,3 hPa 0,0 l/m 14,8 km/h (3 Bft) O-SO 0,00 h 0,000 mm 0,0 UV-I 0 W/m 0,2 C 5,9 C 18,9 km/h (3 Bft) 0,00 %
17.03.2015 19:00 9,1 C 51 % 1023,7 hPa 0,0 l/m 12,2 km/h (2 Bft) O-SO 0,00 h 0,000 mm 0,0 UV-I 0 W/m -0,4 C 5,7 C 16,9 km/h (3 Bft) 0,00 %
17.03.2015 20:00 7,9 C 54 % 1024,0 hPa 0,0 l/m 13,1 km/h (3 Bft) O 0,00 h 0,000 mm 0,0 UV-I 0 W/m -0,9 C 3,8 C 18,9 km/h (3 Bft) 0,00 %
17.03.2015 21:00 7,0 C 54 % 1024,1 hPa 0,0 l/m 6,3 km/h (2 Bft) O 0,00 h 0,000 mm 0,0 UV-I 0 W/m -1,6 C 5,8 C 8,9 km/h (2 Bft) 0,00 %
17.03.2015 22:00 6,1 C 58 % 1024,3 hPa 0,0 l/m 8,7 km/h (2 Bft) O-SO 0,00 h 0,000 mm 0,0 UV-I 0 W/m -1,5 C 4,0 C 11,9 km/h (2 Bft) 0,00 %
17.03.2015 23:00 5,4 C 60 % 1024,2 hPa 0,0 l/m 4,3 km/h (1 Bft) O-SO 0,00 h 0,000 mm 0,0 UV-I 0 W/m -1,7 C 4,6 C 6,6 km/h (2 Bft) 0,00 %
18.03.2015 00:00 4,4 C 64 % 1024,3 hPa 0,0 l/m 0,9 km/h (0 Bft) O 0,00 h 0,000 mm 0,0 UV-I 0 W/m -1,9 C 4,4 C 2,0 km/h (1 Bft) 0,00 %
18.03.2015 01:00 3,3 C 68 % 1024,5 hPa 0,0 l/m 0,0 km/h (0 Bft) N 0,00 h 0,000 mm 0,0 UV-I 0 W/m -2,2 C 3,3 C 0,0 km/h (0 Bft) 0,00 %
18.03.2015 02:00 2,9 C 68 % 1024,1 hPa 0,0 l/m 0,0 km/h (0 Bft) N 0,00 h 0,000 mm 0,0 UV-I 0 W/m -2,5 C 2,9 C 0,0 km/h (0 Bft) 0,00 %
18.03.2015 03:00 2,3 C 67 % 1024,1 hPa 0,0 l/m 0,5 km/h (0 Bft) SO 0,00 h 0,000 mm 0,0 UV-I 0 W/m -3,1 C 2,3 C 2,0 km/h (1 Bft) 0,00 %
18.03.2015 04:00 1,9 C 66 % 1024,1 hPa 0,0 l/m 0,7 km/h (0 Bft) O-SO 0,00 h 0,000 mm 0,0 UV-I 0 W/m -3,8 C 1,9 C 1,0 km/h (0 Bft) 0,00 %
18.03.2015 05:00 2,2 C 64 % 1024,2 hPa 0,0 l/m 0,9 km/h (0 Bft) SO 0,00 h 0,000 mm 0,0 UV-I 0 W/m -3,9 C 2,2 C 2,0 km/h (1 Bft) 0,00 %
18.03.2015 06:00 1,5 C 67 % 1024,6 hPa 0,0 l/m 0,7 km/h (0 Bft) O 0,50 h 0,000 mm 0,0 UV-I 49 W/m -3,9 C 1,5 C 2,0 km/h (1 Bft) 0,00 %
18.03.2015 07:00 3,7 C 64 % 1024,7 hPa 0,0 l/m 1,0 km/h (0 Bft) O-SO 1,00 h 0,000 mm 1,0 UV-I 173 W/m -2,6 C 3,7 C 2,0 km/h (1 Bft) 0,00 %
18.03.2015 08:00 4,9 C 62 % 1024,7 hPa 0,0 l/m 9,4 km/h (2 Bft) O-SO 1,00 h 0,000 mm 1,3 UV-I 218 W/m -1,7 C 2,4 C 12,9 km/h (3 Bft) 0,00 %
18.03.2015 09:00 6,4 C 58 % 1024,7 hPa 0,0 l/m 10,1 km/h (2 Bft) O-SO 0,00 h 0,000 mm 2,0 UV-I 184 W/m -1,3 C 3,7 C 15,8 km/h (3 Bft) 0,00 %
18.03.2015 10:00 8,4 C 52 % 1024,1 hPa 0,0 l/m 2,7 km/h (1 Bft) O-SO 0,00 h 0,000 mm 3,0 UV-I 268 W/m -1,0 C 8,3 C 5,0 km/h (1 Bft) 0,00 %
18.03.2015 11:00 10,0 C 46 % 1023,6 hPa 0,0 l/m 2,7 km/h (1 Bft) O-SO 0,75 h 0,000 mm 4,0 UV-I 418 W/m -1,2 C 10,0 C 4,9 km/h (1 Bft) 0,00 %
18.03.2015 12:00 10,8 C 43 % 1022,9 hPa 0,0 l/m 3,9 km/h (1 Bft) O 1,00 h 0,000 mm 4,0 UV-I 510 W/m -1,4 C 10,3 C 5,9 km/h (2 Bft) 0,00 %
18.03.2015 13:00 11,5 C 38 % 1022,1 hPa 0,0 l/m 8,4 km/h (2 Bft) SO 1,00 h 0,000 mm 2,0 UV-I 527 W/m -2,3 C 10,2 C 11,9 km/h (2 Bft) 0,00 %
18.03.2015 14:00 12,2 C 37 % 1021,6 hPa 0,0 l/m 5,1 km/h (1 Bft) O-NO 1,00 h 0,000 mm 2,0 UV-I 510 W/m -2,2 C 11,4 C 7,9 km/h (2 Bft) 0,00 %
18.03.2015 15:00 12,7 C 34 % 1021,1 hPa 0,0 l/m 4,8 km/h (1 Bft) O-SO 1,00 h 0,000 mm 1,7 UV-I 503 W/m -3,0 C 12,4 C 6,9 km/h (2 Bft) 0,00 %
18.03.2015 16:00 12,6 C 34 % 1021,0 hPa 0,0 l/m 10,4 km/h (2 Bft) O-SO 1,00 h 0,000 mm 1,0 UV-I 419 W/m -2,7 C 10,5 C 14,0 km/h (3 Bft) 0,00 %
18.03.2015 17:00 11,5 C 37 % 1021,3 hPa 0,0 l/m 6,7 km/h (2 Bft) O-SO 1,00 h 0,000 mm 1,0 UV-I 157 W/m -2,8 C 10,8 C 8,9 km/h (2 Bft) 0,00 %
18.03.2015 18:00 9,4 C 41 % 1022,2 hPa 0,0 l/m 6,9 km/h (2 Bft) O-SO 0,00 h 0,000 mm 0,0 UV-I 0 W/m -3,3 C 8,8 C 11,9 km/h (2 Bft) 0,00 %
18.03.2015 19:00 8,3 C 42 % 1022,8 hPa 0,0 l/m 5,4 km/h (1 Bft) O 0,00 h 0,000 mm 0,0 UV-I 0 W/m -3,9 C 7,4 C 9,9 km/h (2 Bft) 0,00 %
18.03.2015 20:00 7,3 C 43 % 1023,5 hPa 0,0 l/m 5,3 km/h (1 Bft) O-SO 0,00 h 0,000 mm 0,0 UV-I 0 W/m -4,7 C 6,5 C 8,9 km/h (2 Bft) 0,00 %
18.03.2015 21:00 5,2 C 51 % 1024,1 hPa 0,0 l/m 0,0 km/h (0 Bft) N 0,00 h 0,000 mm 0,0 UV-I 0 W/m -4,1 C 5,2 C 0,0 km/h (0 Bft) 0,00 %
18.03.2015 22:00 3,9 C 55 % 1024,4 hPa 0,0 l/m 0,0 km/h (0 Bft) N 0,00 h 0,000 mm 0,0 UV-I 0 W/m -4,4 C 3,9 C 0,0 km/h (0 Bft) 0,00 %
18.03.2015 23:00 2,8 C 58 % 1024,4 hPa 0,0 l/m 0,0 km/h (0 Bft) N 0,00 h 0,000 mm 0,0 UV-I 0 W/m -4,8 C 2,8 C 0,0 km/h (0 Bft) 0,00 %
19.03.2015 00:00 2,4 C 57 % 1024,2 hPa 0,0 l/m 0,0 km/h (0 Bft) N 0,00 h 0,000 mm 0,0 UV-I 0 W/m -5,3 C 2,4 C 0,0 km/h (0 Bft) 0,00 %
19.03.2015 01:00 0,9 C 61 % 1024,3 hPa 0,0 l/m 0,0 km/h (0 Bft) N 0,00 h 0,000 mm 0,0 UV-I 0 W/m -5,8 C 0,9 C 0,0 km/h (0 Bft) 0,00 %
19.03.2015 02:00 0,4 C 64 % 1024,4 hPa 0,0 l/m 0,0 km/h (0 Bft) N 0,00 h 0,000 mm 0,0 UV-I 0 W/m -5,7 C 0,4 C 0,0 km/h (0 Bft) 0,00 %
19.03.2015 03:00 -0,5 C 69 % 1024,4 hPa 0,0 l/m 0,0 km/h (0 Bft) N 0,00 h 0,000 mm 0,0 UV-I 0 W/m -5,4 C -0,5 C 0,0 km/h (0 Bft) 0,00 %
19.03.2015 04:00 -1,2 C 73 % 1024,7 hPa 0,0 l/m 0,0 km/h (0 Bft) N 0,00 h 0,000 mm 0,0 UV-I 0 W/m -5,4 C -1,2 C 0,0 km/h (0 Bft) 0,00 %
19.03.2015 05:00 -0,6 C 70 % 1024,8 hPa 0,0 l/m 0,0 km/h (0 Bft) N 0,00 h 0,000 mm 0,0 UV-I 0 W/m -5,4 C -0,6 C 0,0 km/h (0 Bft) 0,00 %
19.03.2015 06:00 -1,8 C 75 % 1025,7 hPa 0,0 l/m 0,0 km/h (0 Bft) N 0,50 h 0,000 mm 0,0 UV-I 64 W/m -5,6 C -1,8 C 0,0 km/h (0 Bft) 0,00 %
19.03.2015 07:00 1,7 C 62 % 1025,5 hPa 0,0 l/m 0,0 km/h (0 Bft) N 1,00 h 0,000 mm 1,0 UV-I 155 W/m -4,8 C 1,7 C 0,0 km/h (0 Bft) 0,00 %
19.03.2015 08:00 3,7 C 60 % 1025,6 hPa 0,0 l/m 0,3 km/h (0 Bft) O 0,75 h 0,000 mm 1,3 UV-I 211 W/m -3,4 C 3,7 C 1,0 km/h (0 Bft) 0,00 %
19.03.2015 09:00 5,1 C 54 % 1025,7 hPa 0,0 l/m 4,0 km/h (1 Bft) O-NO 0,00 h 0,000 mm 2,0 UV-I 236 W/m -3,4 C 4,0 C 5,9 km/h (2 Bft) 0,00 %
19.03.2015 10:00 7,3 C 47 % 1025,3 hPa 0,0 l/m 5,6 km/h (1 Bft) O 0,00 h 0,000 mm 3,0 UV-I 277 W/m -3,2 C 6,9 C 7,9 km/h (2 Bft) 0,00 %
19.03.2015 11:00 9,5 C 40 % 1024,6 hPa 0,0 l/m 1,0 km/h (0 Bft) N-NO 0,75 h 0,000 mm 4,0 UV-I 346 W/m -3,3 C 9,5 C 2,0 km/h (1 Bft) 0,00 %
19.03.2015 12:00 10,3 C 35 % 1024,1 hPa 0,0 l/m 4,6 km/h (1 Bft) O 0,50 h 0,000 mm 4,0 UV-I 311 W/m -4,6 C 9,7 C 7,9 km/h (2 Bft) 0,00 %
19.03.2015 13:00 10,8 C 26 % 1023,3 hPa 0,0 l/m 2,3 km/h (1 Bft) NO 1,00 h 0,000 mm 2,0 UV-I 550 W/m -8,3 C 10,8 C 4,9 km/h (1 Bft) 0,00 %
19.03.2015 14:00 11,3 C 20 % 1022,6 hPa 0,0 l/m 4,3 km/h (1 Bft) O 1,00 h 0,000 mm 2,0 UV-I 560 W/m -11,1 C 11,3 C 6,9 km/h (2 Bft) 0,00 %
19.03.2015 15:00 11,7 C 19 % 1022,2 hPa 0,0 l/m 2,9 km/h (1 Bft) O-NO 1,00 h 0,000 mm 1,7 UV-I 560 W/m -11,5 C 11,7 C 5,0 km/h (1 Bft) 0,00 %
19.03.2015 16:00 12,7 C 21 % 1021,8 hPa 0,0 l/m 0,1 km/h (0 Bft) N 1,00 h 0,000 mm 1,0 UV-I 526 W/m -9,4 C 12,7 C 1,0 km/h (0 Bft) 0,00 %
19.03.2015 17:00 12,1 C 21 % 1022,0 hPa 0,0 l/m 0,4 km/h (0 Bft) SO 1,00 h 0,000 mm 1,0 UV-I 192 W/m -9,5 C 12,1 C 1,0 km/h (0 Bft) 0,00 %
19.03.2015 18:00 8,7 C 36 % 1022,6 hPa 0,0 l/m 0,0 km/h (0 Bft) N 0,00 h 0,000 mm 0,0 UV-I 0 W/m -5,6 C 8,7 C 0,0 km/h (0 Bft) 0,00 %
19.03.2015 19:00 6,9 C 40 % 1023,4 hPa 0,0 l/m 0,0 km/h (0 Bft) N 0,00 h 0,000 mm 0,0 UV-I 0 W/m -6,0 C 6,9 C 0,0 km/h (0 Bft) 0,00 %
19.03.2015 20:00 6,4 C 43 % 1023,9 hPa 0,0 l/m 0,9 km/h (0 Bft) O-SO 0,00 h 0,000 mm 0,0 UV-I 0 W/m -5,1 C 6,4 C 2,0 km/h (1 Bft) 0,00 %
19.03.2015 21:00 5,0 C 52 % 1024,5 hPa 0,0 l/m 0,0 km/h (0 Bft) N 0,00 h 0,000 mm 0,0 UV-I 0 W/m -4,1 C 5,0 C 0,0 km/h (0 Bft) 0,00 %
19.03.2015 22:00 4,0 C 56 % 1024,7 hPa 0,0 l/m 0,0 km/h (0 Bft) N 0,00 h 0,000 mm 0,0 UV-I 0 W/m -3,9 C 4,0 C 0,0 km/h (0 Bft) 0,00 %
19.03.2015 23:00 2,3 C 60 % 1024,8 hPa 0,0 l/m 0,0 km/h (0 Bft) N 0,00 h 0,000 mm 0,0 UV-I 0 W/m -4,6 C 2,3 C 0,0 km/h (0 Bft) 0,00 %
20.03.2015 00:00 0,7 C 66 % 1025,0 hPa 0,0 l/m 0,0 km/h (0 Bft) N 0,00 h 0,000 mm 0,0 UV-I 0 W/m -4,9 C 0,7 C 0,0 km/h (0 Bft) 0,00 %
20.03.2015 01:00 0,3 C 67 % 1024,9 hPa 0,0 l/m 0,0 km/h (0 Bft) N 0,00 h 0,000 mm 0,0 UV-I 0 W/m -5,1 C 0,3 C 0,0 km/h (0 Bft) 0,00 %
20.03.2015 02:00 -0,4 C 70 % 1024,8 hPa 0,0 l/m 0,0 km/h (0 Bft) N 0,00 h 0,000 mm 0,0 UV-I 0 W/m -5,2 C -0,4 C 0,0 km/h (0 Bft) 0,00 %
20.03.2015 03:00 -0,9 C 72 % 1024,5 hPa 0,0 l/m 0,0 km/h (0 Bft) N 0,00 h 0,000 mm 0,0 UV-I 0 W/m -5,3 C -0,9 C 0,0 km/h (0 Bft) 0,00 %
20.03.2015 04:00 -1,3 C 75 % 1024,8 hPa 0,0 l/m 0,0 km/h (0 Bft) N 0,00 h 0,000 mm 0,0 UV-I 0 W/m -5,2 C -1,3 C 0,0 km/h (0 Bft) 0,00 %
20.03.2015 05:00 -1,6 C 76 % 1025,1 hPa 0,0 l/m 0,0 km/h (0 Bft) N 0,00 h 0,000 mm 0,0 UV-I 0 W/m -5,2 C -1,6 C 0,0 km/h (0 Bft) 0,00 %
20.03.2015 06:00 -1,5 C 76 % 1025,1 hPa 0,0 l/m 0,0 km/h (0 Bft) N 0,50 h 0,000 mm 0,0 UV-I 48 W/m -5,1 C -1,5 C 0,0 km/h (0 Bft) 0,00 %
20.03.2015 07:00 1,3 C 64 % 1024,9 hPa 0,0 l/m 0,0 km/h (0 Bft) O 1,00 h 0,000 mm 1,0 UV-I 159 W/m -4,7 C 1,3 C 0,0 km/h (0 Bft) 0,00 %
20.03.2015 08:00 3,0 C 62 % 1024,7 hPa 0,0 l/m 1,6 km/h (1 Bft) O 0,75 h 0,000 mm 1,7 UV-I 211 W/m -3,6 C 3,0 C 3,0 km/h (1 Bft) 0,00 %
20.03.2015 09:00 5,0 C 54 % 1024,3 hPa 0,0 l/m 3,2 km/h (1 Bft) O 0,00 h 0,000 mm 2,0 UV-I 193 W/m -3,4 C 4,9 C 5,9 km/h (2 Bft) 0,00 %
20.03.2015 10:00 5,7 C 53 % 1023,8 hPa 0,0 l/m 1,0 km/h (0 Bft) O-SO 0,00 h 0,000 mm 1,0 UV-I 117 W/m -3,1 C 5,7 C 3,0 km/h (1 Bft) 0,00 %
20.03.2015 11:00 6,1 C 51 % 1023,5 hPa 0,0 l/m 1,6 km/h (1 Bft) O-SO 0,25 h 0,000 mm 3,0 UV-I 339 W/m -3,3 C 6,1 C 3,0 km/h (1 Bft) 0,00 %
20.03.2015 12:00 8,6 C 44 % 1023,0 hPa 0,0 l/m 0,1 km/h (0 Bft) O-SO 0,75 h 0,000 mm 4,0 UV-I 400 W/m -3,0 C 8,6 C 1,0 km/h (0 Bft) 0,00 %
20.03.2015 13:00 10,1 C 36 % 1021,9 hPa 0,0 l/m 2,4 km/h (1 Bft) O 1,00 h 0,000 mm 2,0 UV-I 560 W/m -4,5 C 10,1 C 4,0 km/h (1 Bft) 0,00 %
20.03.2015 14:00 11,0 C 29 % 1021,0 hPa 0,0 l/m 0,4 km/h (0 Bft) N 1,00 h 0,000 mm 2,0 UV-I 560 W/m -6,3 C 11,0 C 1,0 km/h (0 Bft) 0,00 %
20.03.2015 15:00 11,4 C 27 % 1020,2 hPa 0,0 l/m 0,0 km/h (0 Bft) N 1,00 h 0,000 mm 1,7 UV-I 540 W/m -6,9 C 11,4 C 0,0 km/h (0 Bft) 0,00 %
20.03.2015 16:00 12,7 C 24 % 1019,3 hPa 0,0 l/m 0,0 km/h (0 Bft) N 1,00 h 0,000 mm 1,0 UV-I 408 W/m -7,2 C 12,7 C 0,0 km/h (0 Bft) 0,00 %
20.03.2015 17:00 12,0 C 28 % 1019,0 hPa 0,0 l/m 0,0 km/h (0 Bft) N 1,00 h 0,000 mm 1,0 UV-I 163 W/m -6,2 C 12,0 C 0,0 km/h (0 Bft) 0,00 %
20.03.2015 18:00 8,2 C 44 % 1019,4 hPa 0,0 l/m 0,0 km/h (0 Bft) N 0,25 h 0,000 mm 0,0 UV-I 2 W/m -3,5 C 8,2 C 0,0 km/h (0 Bft) 0,00 %
20.03.2015 19:00 5,5 C 50 % 1019,7 hPa 0,0 l/m 0,0 km/h (0 Bft) N 0,00 h 0,000 mm 0,0 UV-I 0 W/m -4,0 C 5,5 C 0,0 km/h (0 Bft) 0,00 %
20.03.2015 20:00 4,6 C 51 % 1020,0 hPa 0,0 l/m 0,0 km/h (0 Bft) N 0,00 h 0,000 mm 0,0 UV-I 0 W/m -4,7 C 4,6 C 0,0 km/h (0 Bft) 0,00 %
20.03.2015 21:00 3,6 C 57 % 1020,1 hPa 0,0 l/m 0,0 km/h (0 Bft) N 0,00 h 0,000 mm 0,0 UV-I 0 W/m -4,2 C 3,6 C 0,0 km/h (0 Bft) 0,00 %
20.03.2015 22:00 2,2 C 60 % 1020,1 hPa 0,0 l/m 0,0 km/h (0 Bft) N 0,00 h 0,000 mm 0,0 UV-I 0 W/m -4,8 C 2,2 C 0,0 km/h (0 Bft) 0,00 %
20.03.2015 23:00 1,6 C 63 % 1019,8 hPa 0,0 l/m 0,0 km/h (0 Bft) N 0,00 h 0,000 mm 0,0 UV-I 0 W/m -4,7 C 1,6 C 0,0 km/h (0 Bft) 0,00 %
21.03.2015 00:00 0,7 C 70 % 1019,3 hPa 0,0 l/m 0,0 km/h (0 Bft) N 0,00 h 0,000 mm 0,0 UV-I 0 W/m -4,1 C 0,7 C 0,0 km/h (0 Bft) 0,00 %
21.03.2015 01:00 0,4 C 73 % 1019,0 hPa 0,0 l/m 0,0 km/h (0 Bft) N 0,00 h 0,000 mm 0,0 UV-I 0 W/m -3,9 C 0,4 C 0,0 km/h (0 Bft) 0,00 %
21.03.2015 02:00 -0,2 C 76 % 1018,6 hPa 0,0 l/m 0,0 km/h (0 Bft) N 0,00 h 0,000 mm 0,0 UV-I 0 W/m -4,0 C -0,2 C 0,0 km/h (0 Bft) 0,00 %
21.03.2015 03:00 -0,7 C 78 % 1018,0 hPa 0,0 l/m 0,0 km/h (0 Bft) N 0,00 h 0,000 mm 0,0 UV-I 0 W/m -4,1 C -0,7 C 0,0 km/h (0 Bft) 0,00 %
21.03.2015 04:00 -1,1 C 79 % 1017,5 hPa 0,0 l/m 0,0 km/h (0 Bft) N 0,00 h 0,000 mm 0,0 UV-I 0 W/m -4,4 C -1,1 C 0,0 km/h (0 Bft) 0,00 %
21.03.2015 05:00 -2,1 C 81 % 1017,4 hPa 0,0 l/m 0,0 km/h (0 Bft) N 0,00 h 0,000 mm 0,0 UV-I 0 W/m -4,9 C -2,1 C 0,0 km/h (0 Bft) 0,00 %
21.03.2015 06:00 -1,9 C 83 % 1017,3 hPa 0,0 l/m 0,0 km/h (0 Bft) N 0,50 h 0,000 mm 0,0 UV-I 47 W/m -4,5 C -1,9 C 0,0 km/h (0 Bft) 0,00 %
21.03.2015 07:00 1,5 C 70 % 1016,8 hPa 0,0 l/m 0,0 km/h (0 Bft) N 1,00 h 0,000 mm 1,0 UV-I 141 W/m -3,4 C 1,5 C 0,0 km/h (0 Bft) 0,00 %
21.03.2015 08:00 4,9 C 60 % 1016,0 hPa 0,0 l/m 0,0 km/h (0 Bft) N 0,50 h 0,000 mm 2,0 UV-I 203 W/m -2,3 C 4,9 C 0,0 km/h (0 Bft) 0,00 %
21.03.2015 09:00 7,3 C 53 % 1015,3 hPa 0,0 l/m 0,1 km/h (0 Bft) N 0,00 h 0,000 mm 2,3 UV-I 262 W/m -1,7 C 7,3 C 1,0 km/h (0 Bft) 0,00 %
21.03.2015 10:00 8,8 C 50 % 1014,7 hPa 0,0 l/m 0,8 km/h (0 Bft) W 0,00 h 0,000 mm 3,0 UV-I 263 W/m -1,1 C 8,8 C 2,0 km/h (1 Bft) 0,00 %
21.03.2015 11:00 11,4 C 41 % 1013,6 hPa 0,0 l/m 0,0 km/h (0 Bft) SW 0,75 h 0,000 mm 4,0 UV-I 369 W/m -1,3 C 11,4 C 0,0 km/h (0 Bft) 0,00 %
21.03.2015 12:00 12,8 C 38 % 1012,2 hPa 0,0 l/m 0,7 km/h (0 Bft) N 1,00 h 0,000 mm 3,7 UV-I 485 W/m -1,3 C 12,8 C 1,0 km/h (0 Bft) 0,00 %
21.03.2015 13:00 13,4 C 38 % 1010,9 hPa 0,0 l/m 0,0 km/h (0 Bft) N 0,00 h 0,000 mm 2,0 UV-I 249 W/m -0,7 C 13,4 C 0,0 km/h (0 Bft) 0,00 %
21.03.2015 14:00 13,6 C 36 % 1010,4 hPa 0,0 l/m 0,3 km/h (0 Bft) NW 0,00 h 0,000 mm 2,0 UV-I 271 W/m -1,2 C 13,6 C 1,0 km/h (0 Bft) 0,00 %
21.03.2015 15:00 13,5 C 37 % 1009,9 hPa 0,0 l/m 0,6 km/h (0 Bft) O-SO 0,00 h 0,000 mm 1,0 UV-I 126 W/m -1,0 C 13,5 C 1,0 km/h (0 Bft) 0,00 %
21.03.2015 16:00 13,0 C 41 % 1009,9 hPa 0,0 l/m 0,0 km/h (0 Bft) N 0,00 h 0,000 mm 1,0 UV-I 70 W/m 0,1 C 13,0 C 0,0 km/h (0 Bft) 0,00 %
21.03.2015 17:00 11,6 C 47 % 1009,8 hPa 0,0 l/m 0,0 km/h (0 Bft) N 0,00 h 0,000 mm 0,0 UV-I 8 W/m 0,8 C 11,6 C 0,0 km/h (0 Bft) 0,00 %
21.03.2015 18:00 10,3 C 51 % 1009,9 hPa 0,0 l/m 0,0 km/h (0 Bft) N 0,00 h 0,000 mm 0,0 UV-I 0 W/m 0,6 C 10,3 C 0,0 km/h (0 Bft) 0,00 %
21.03.2015 19:00 10,0 C 52 % 1010,4 hPa 0,0 l/m 0,0 km/h (0 Bft) N 0,00 h 0,000 mm 0,0 UV-I 0 W/m 0,6 C 10,0 C 0,0 km/h (0 Bft) 0,00 %
21.03.2015 20:00 9,2 C 60 % 1011,0 hPa 0,0 l/m 0,2 km/h (0 Bft) W-SW 0,00 h 0,000 mm 0,0 UV-I 0 W/m 1,8 C 9,2 C 2,0 km/h (1 Bft) 0,00 %
21.03.2015 21:00 8,6 C 69 % 1011,9 hPa 0,3 l/m 1,6 km/h (1 Bft) N 0,00 h 0,000 mm 0,0 UV-I 0 W/m 3,2 C 8,6 C 3,0 km/h (1 Bft) 0,00 %
21.03.2015 22:00 7,1 C 81 % 1012,7 hPa 0,3 l/m 0,0 km/h (0 Bft) N 0,00 h 0,000 mm 0,0 UV-I 0 W/m 4,0 C 7,1 C 0,0 km/h (0 Bft) 0,00 %
21.03.2015 23:00 6,5 C 85 % 1013,2 hPa 1,2 l/m 0,1 km/h (0 Bft) N 0,00 h 0,000 mm 0,0 UV-I 0 W/m 4,2 C 6,5 C 1,0 km/h (0 Bft) 0,00 %
22.03.2015 00:00 6,1 C 88 % 1013,5 hPa 1,5 l/m 0,1 km/h (0 Bft) N 0,00 h 0,000 mm 0,0 UV-I 0 W/m 4,3 C 6,1 C 1,0 km/h (0 Bft) 0,00 %
22.03.2015 01:00 5,9 C 89 % 1014,0 hPa 0,9 l/m 0,0 km/h (0 Bft) W-SW 0,00 h 0,000 mm 0,0 UV-I 0 W/m 4,2 C 5,9 C 0,0 km/h (0 Bft) 0,00 %
22.03.2015 02:00 5,2 C 90 % 1014,6 hPa 1,2 l/m 1,0 km/h (0 Bft) N 0,00 h 0,000 mm 0,0 UV-I 0 W/m 3,6 C 5,2 C 2,0 km/h (1 Bft) 0,00 %
22.03.2015 03:00 4,9 C 90 % 1015,0 hPa 1,2 l/m 0,3 km/h (0 Bft) N 0,00 h 0,000 mm 0,0 UV-I 0 W/m 3,4 C 4,9 C 2,0 km/h (1 Bft) 0,00 %
22.03.2015 04:00 4,7 C 91 % 1015,6 hPa 0,9 l/m 0,0 km/h (0 Bft) N 0,00 h 0,000 mm 0,0 UV-I 0 W/m 3,3 C 4,7 C 0,0 km/h (0 Bft) 0,00 %
22.03.2015 05:00 4,1 C 90 % 1016,3 hPa 0,9 l/m 0,1 km/h (0 Bft) N 0,00 h 0,000 mm 0,0 UV-I 0 W/m 2,6 C 4,1 C 1,0 km/h (0 Bft) 0,00 %
22.03.2015 06:00 3,7 C 90 % 1017,3 hPa 0,6 l/m 0,0 km/h (0 Bft) N 0,00 h 0,000 mm 0,0 UV-I 0 W/m 2,2 C 3,7 C 0,0 km/h (0 Bft) 0,00 %
22.03.2015 07:00 3,6 C 91 % 1018,2 hPa 0,3 l/m 0,0 km/h (0 Bft) N 0,00 h 0,000 mm 1,0 UV-I 33 W/m 2,2 C 3,6 C 0,0 km/h (0 Bft) 0,00 %
22.03.2015 08:00 3,8 C 88 % 1019,0 hPa 0,3 l/m 0,2 km/h (0 Bft) N 0,00 h 0,000 mm 1,0 UV-I 48 W/m 2,0 C 3,8 C 2,0 km/h (1 Bft) 0,00 %
22.03.2015 09:00 4,0 C 85 % 1019,8 hPa 0,0 l/m 1,6 km/h (1 Bft) O 0,00 h 0,000 mm 1,0 UV-I 50 W/m 1,8 C 4,0 C 3,0 km/h (1 Bft) 0,00 %
22.03.2015 10:00 4,3 C 83 % 1020,1 hPa 0,0 l/m 3,5 km/h (1 Bft) O 0,00 h 0,000 mm 1,0 UV-I 84 W/m 1,7 C 4,1 C 5,9 km/h (2 Bft) 0,00 %
22.03.2015 11:00 4,5 C 82 % 1020,1 hPa 0,0 l/m 4,2 km/h (1 Bft) O-NO 0,00 h 0,000 mm 1,0 UV-I 67 W/m 1,7 C 3,9 C 6,9 km/h (2 Bft) 0,00 %
22.03.2015 12:00 4,8 C 81 % 1019,9 hPa 0,0 l/m 4,5 km/h (1 Bft) O-NO 0,00 h 0,000 mm 1,0 UV-I 113 W/m 1,8 C 4,1 C 9,9 km/h (2 Bft) 0,00 %
22.03.2015 13:00 5,1 C 81 % 1019,8 hPa 0,0 l/m 3,4 km/h (1 Bft) O-NO 0,00 h 0,000 mm 1,0 UV-I 92 W/m 2,1 C 5,0 C 6,9 km/h (2 Bft) 0,00 %
22.03.2015 14:00 5,4 C 80 % 1019,7 hPa 0,0 l/m 3,0 km/h (1 Bft) O-NO 0,00 h 0,000 mm 1,0 UV-I 100 W/m 2,2 C 5,4 C 5,0 km/h (1 Bft) 0,00 %
22.03.2015 15:00 5,4 C 79 % 1019,8 hPa 0,0 l/m 5,0 km/h (1 Bft) N-NO 0,00 h 0,000 mm 1,0 UV-I 64 W/m 2,1 C 4,4 C 7,9 km/h (2 Bft) 0,00 %
22.03.2015 16:00 5,5 C 79 % 1019,6 hPa 0,0 l/m 5,9 km/h (2 Bft) O 0,00 h 0,000 mm 0,0 UV-I 21 W/m 2,1 C 4,6 C 7,9 km/h (2 Bft) 0,00 %
22.03.2015 17:00 5,4 C 79 % 1019,7 hPa 0,0 l/m 5,0 km/h (1 Bft) O 0,00 h 0,000 mm 0,0 UV-I 6 W/m 1,9 C 4,3 C 7,9 km/h (2 Bft) 0,00 %
22.03.2015 18:00 5,1 C 80 % 1020,1 hPa 0,0 l/m 4,1 km/h (1 Bft) O 0,00 h 0,000 mm 0,0 UV-I 0 W/m 1,9 C 4,5 C 7,9 km/h (2 Bft) 0,00 %
22.03.2015 19:00 5,0 C 79 % 1020,5 hPa 0,0 l/m 2,7 km/h (1 Bft) O 0,00 h 0,000 mm 0,0 UV-I 0 W/m 1,7 C 5,0 C 5,9 km/h (2 Bft) 0,00 %
22.03.2015 20:00 5,1 C 78 % 1020,8 hPa 0,0 l/m 3,8 km/h (1 Bft) O-NO 0,00 h 0,000 mm 0,0 UV-I 0 W/m 1,4 C 4,5 C 5,9 km/h (2 Bft) 0,00 %
22.03.2015 21:00 4,7 C 80 % 1020,7 hPa 0,0 l/m 4,9 km/h (1 Bft) O-NO 0,00 h 0,000 mm 0,0 UV-I 0 W/m 1,5 C 3,9 C 7,9 km/h (2 Bft) 0,00 %
22.03.2015 22:00 4,1 C 79 % 1020,5 hPa 0,0 l/m 2,3 km/h (1 Bft) O 0,00 h 0,000 mm 0,0 UV-I 0 W/m 0,8 C 4,0 C 5,0 km/h (1 Bft) 0,00 %
22.03.2015 23:00 3,9 C 76 % 1020,4 hPa 0,0 l/m 6,8 km/h (2 Bft) O-SO 0,00 h 0,000 mm 0,0 UV-I 0 W/m -0,0 C 2,3 C 8,9 km/h (2 Bft) 0,00 %
Min-Datum _ 21.03.15 19.03.15 21.03.15 - 16.03.15 - - - - - 19.03.15 21.03.15 16.03.15 16.03.15
_ Min-Zeit 05:30 15:15 16:30 - 00:15 - - - - - 15:15 05:30 00:15 00:00
Minimum _ -2,4 C 18 % 1009,7 hPa - 0,0 km/h (0 Bft) - - - - - -11,8 C -2,4 C 0,0 km/h (0 Bft) 0,00 %
Max-Datum _ 16.03.15 22.03.15 17.03.15 22.03.15 17.03.15 - 16.03.15 16.03.15 16.03.15 19.03.15 22.03.15 16.03.15 17.03.15 16.03.15
_ Max-Zeit 13:45 04:00 06:30 00:30 14:30 - 10:00 00:00 10:30 15:00 00:45 13:45 11:15 00:00
Maximum _ 14,9 C 91 % 1026,4 hPa 1,5 l/m 32,0 km/h
O (5 Bft)
- 0,25 h 0,000 mm 4,0 UV-I 570 W/m 4,4 C 14,9 C 44,3 km/h
O (6 Bft)
0,00 %
Durchschnitt _ 6,4 C 58 % 1021,6 hPa #9,6 l/m 4,2 km/h (1 Bft) O-SO #33:15 h #0,000 mm 1,9 UV-I 228 W/m -2,1 C 5,5 C 6,2 km/h (2 Bft) 0,00 %